Location: Ardick
(31.4613°N, 81.4334°W)
Time: 21:04:33
(UTC+00:00)

X-37B - Pass Details

Date: 19 September 2021
Orbit: 385 x 389 km, 45.0° (Epoch: 17 October)

Event Time Altitude Azimuth Distance (km) Brightness Sun altitude
Exits shadow 09:13:59 15° 121° (ESE) 1,146 3.4 -25.6°
Drops below altitude 10° 09:15:22 10° 96° (E) 1,406 4.3 -25.3°
Sets 09:18:00 0° 73° (ENE) 2,265 5.9 -24.8°
